| time (UTC) | temp F | wind direction | speed MPH | gust MPH | rain 1hr in | rain 24hr in | rain mn in | humidity % | barometer mb |
| 20260507064038 | 50 | 0 | 0.0 | 0.0 | 0.00 | 0.06 | 0.00 | 87 | 1017.5 |
| 20260507063034 | 50 | 0 | 0.0 | 0.0 | 0.00 | 0.07 | 0.00 | 87 | 1017.4 |
| 20260507062037 | 50 | 0 | 0.0 | 0.0 | 0.00 | 0.07 | 0.00 | 88 | 1017.3 |
| 20260507060037 | 48 | 0 | 0.0 | 0.0 | 0.00 | 0.08 | 0.00 | 91 | 1017.1 |
| 20260507055034 | 48 | 0 | 0.0 | 0.0 | 0.00 | 0.09 | 0.00 | 94 | 1017.0 |
| 20260507054039 | 48 | 0 | 0.0 | 0.0 | 0.00 | 0.09 | 0.00 | 95 | 1017.0 |
| 20260507053035 | 47 | 0 | 0.0 | 0.0 | 0.00 | 0.09 | 0.00 | 95 | 1016.9 |
| 20260507052038 | 47 | 0 | 0.0 | 0.0 | 0.00 | 0.09 | 0.00 | 96 | 1016.9 |
| 20260507051039 | 47 | 0 | 0.0 | 0.0 | 0.00 | 0.10 | 0.00 | 96 | 1016.8 |
| 20260507045039 | 46 | 0 | 0.0 | 0.0 | 0.00 | 0.11 | 0.00 | 97 | 1016.5 |
| 20260507044039 | 46 | 0 | 0.0 | 0.0 | 0.00 | 0.11 | 0.00 | 97 | 1016.4 |
| 20260507043036 | 46 | 0 | 0.0 | 0.0 | 0.00 | 0.11 | 0.00 | 97 | 1016.3 |
| 20260507042038 | 46 | 0 | 0.0 | 0.0 | 0.00 | 0.12 | 0.00 | 97 | 1016.3 |
| 20260507041036 | 46 | 0 | 0.0 | 0.0 | 0.00 | 0.12 | 0.00 | 97 | 1016.2 |
| 20260507040036 | 46 | 0 | 0.0 | 0.0 | 0.00 | 0.13 | 0.00 | 97 | 1016.0 |
| 20260507035037 | 46 | 0 | 0.0 | 0.0 | 0.00 | 0.13 | 0.00 | 97 | 1016.0 |
| 20260507034039 | 47 | 0 | 0.0 | 0.0 | 0.00 | 0.13 | 0.00 | 97 | 1016.0 |
| 20260507033037 | 47 | 0 | 0.0 | 0.0 | 0.00 | 0.13 | 0.00 | 97 | 1016.0 |
| 20260507032040 | 47 | 0 | 0.0 | 0.0 | 0.00 | 0.14 | 0.00 | 97 | 1015.9 |
| 20260507031037 | 47 | 0 | 0.0 | 0.0 | 0.00 | 0.15 | 0.00 | 97 | 1015.9 |
| 20260507030037 | 47 | 0 | 0.0 | 0.0 | 0.00 | 0.15 | 0.00 | 97 | 1015.9 |
| 20260507025039 | 47 | 0 | 0.0 | 0.0 | 0.00 | 0.15 | 0.00 | 97 | 1015.9 |
| 20260507024035 | 47 | 0 | 0.0 | 0.0 | 0.00 | 0.16 | 0.00 | 96 | 1015.9 |
| 20260507023039 | 47 | 0 | 0.0 | 0.0 | 0.00 | 0.17 | 0.00 | 96 | 1015.8 |
| 20260507022039 | 47 | 0 | 0.0 | 0.0 | 0.00 | 0.17 | 0.00 | 95 | 1015.7 |
| 20260507021037 | 47 | 0 | 0.0 | 0.0 | 0.00 | 0.18 | 0.00 | 94 | 1015.6 |
| 20260507020036 | 47 | 0 | 0.0 | 0.0 | 0.00 | 0.19 | 0.00 | 93 | 1015.5 |
| 20260507015035 | 47 | 0 | 0.0 | 0.0 | 0.00 | 0.20 | 0.00 | 92 | 1015.5 |
| 20260507014035 | 47 | 0 | 0.0 | 0.0 | 0.00 | 0.20 | 0.00 | 91 | 1015.6 |
| 20260507013034 | 47 | 0 | 0.0 | 0.0 | 0.00 | 0.21 | 0.00 | 91 | 1015.6 |
| 20260507010037 | 47 | 0 | 0.0 | 0.0 | 0.00 | 0.24 | 0.00 | 91 | 1015.5 |
| 20260507005037 | 47 | 0 | 0.0 | 0.0 | 0.00 | 0.24 | 0.00 | 91 | 1015.5 |
| 20260507004038 | 47 | 0 | 0.0 | 0.0 | 0.00 | 0.25 | 0.00 | 92 | 1015.4 |
| 20260507002037 | 47 | 0 | 0.0 | 0.0 | 0.00 | 0.27 | 0.00 | 94 | 1015.4 |
| 20260507001037 | 47 | 0 | 0.0 | 0.0 | 0.00 | 0.28 | 0.00 | 94 | 1015.4 |
| 20260506235044 | 47 | 0 | 0.0 | 0.0 | 0.00 | 0.31 | 0.00 | 95 | 1015.3 |
| 20260506234042 | 47 | 0 | 0.0 | 0.0 | 0.00 | 0.32 | 0.00 | 96 | 1015.3 |
| 20260506233042 | 47 | 0 | 0.0 | 0.0 | 0.00 | 0.33 | 0.00 | 96 | 1015.2 |
| 20260506232041 | 47 | 0 | 0.0 | 0.0 | 0.00 | 0.34 | 0.00 | 97 | 1015.1 |
| 20260506231040 | 47 | 0 | 0.0 | 0.0 | 0.00 | 0.35 | 0.00 | 97 | 1015.1 |
| 20260506230042 | 47 | 0 | 0.0 | 0.0 | 0.00 | 0.36 | 0.00 | 98 | 1015.0 |
| 20260506225041 | 47 | 0 | 0.0 | 0.0 | 0.00 | 0.37 | 0.00 | 98 | 1014.9 |
| 20260506224045 | 46 | 0 | 0.0 | 0.0 | 0.00 | 0.38 | 0.00 | 98 | 1014.8 |
| 20260506223042 | 46 | 0 | 0.0 | 0.0 | 0.00 | 0.39 | 0.00 | 98 | 1014.7 |
| 20260506222042 | 46 | 0 | 0.0 | 0.0 | 0.00 | 0.40 | 0.00 | 98 | 1014.6 |
| 20260506221044 | 46 | 0 | 0.0 | 0.0 | 0.00 | 0.41 | 0.00 | 97 | 1014.6 |
| 20260506215047 | 46 | 0 | 0.0 | 0.0 | 0.00 | 0.43 | 0.43 | 97 | 1014.5 |
| 20260506214048 | 46 | 0 | 0.0 | 0.0 | 0.00 | 0.43 | 0.43 | 96 | 1014.4 |
| 20260506213048 | 47 | 0 | 0.0 | 0.0 | 0.00 | 0.44 | 0.43 | 95 | 1014.3 |
| 20260506212049 | 47 | 0 | 0.0 | 0.0 | 0.00 | 0.45 | 0.43 | 95 | 1014.3 |
| 20260506211047 | 47 | 0 | 0.0 | 0.0 | 0.00 | 0.46 | 0.43 | 94 | 1014.3 |
| 20260506210048 | 47 | 0 | 0.0 | 0.0 | 0.00 | 0.47 | 0.43 | 93 | 1014.1 |
| 20260506205047 | 48 | 0 | 0.0 | 0.0 | 0.00 | 0.49 | 0.43 | 92 | 1014.1 |
| 20260506204047 | 48 | 0 | 0.0 | 0.0 | 0.00 | 0.50 | 0.43 | 91 | 1014.1 |
| 20260506203045 | 48 | 0 | 0.0 | 0.0 | 0.00 | 0.50 | 0.43 | 90 | 1014.1 |
| 20260506202045 | 48 | 0 | 0.0 | 0.0 | 0.00 | 0.51 | 0.43 | 88 | 1014.0 |
| 20260506201050 | 49 | 0 | 0.0 | 0.0 | 0.00 | 0.52 | 0.43 | 86 | 1013.9 |
| 20260506194044 | 49 | 0 | 0.0 | 0.0 | 0.00 | 0.55 | 0.43 | 84 | 1013.7 |
| 20260506193044 | 49 | 0 | 0.0 | 0.0 | 0.00 | 0.55 | 0.43 | 83 | 1013.6 |
| 20260506192042 | 50 | 0 | 0.0 | 0.0 | 0.00 | 0.56 | 0.43 | 82 | 1013.4 |
| 20260506191042 | 50 | 0 | 0.0 | 0.0 | 0.00 | 0.57 | 0.43 | 81 | 1013.3 |
| 20260506190049 | 50 | 0 | 0.0 | 0.0 | 0.00 | 0.57 | 0.43 | 79 | 1013.2 |
| 20260506185043 | 51 | 0 | 0.0 | 0.0 | 0.00 | 0.58 | 0.43 | 76 | 1013.1 |
| 20260506184040 | 51 | 0 | 0.0 | 0.0 | 0.00 | 0.60 | 0.43 | 76 | 1012.9 |
| 20260506183045 | 52 | 0 | 0.0 | 0.0 | 0.00 | 0.61 | 0.43 | 75 | 1012.9 |
| 20260506182044 | 52 | 0 | 0.0 | 0.0 | 0.00 | 0.61 | 0.43 | 75 | 1012.8 |
| 20260506181038 | 52 | 0 | 0.0 | 0.0 | 0.00 | 0.61 | 0.43 | 75 | 1012.6 |
| 20260506175043 | 53 | 0 | 0.0 | 0.0 | 0.00 | 0.63 | 0.43 | 77 | 1012.2 |
| 20260506174043 | 53 | 0 | 0.0 | 0.0 | 0.00 | 0.63 | 0.43 | 78 | 1012.1 |
| 20260506173039 | 52 | 0 | 0.0 | 0.0 | 0.00 | 0.64 | 0.43 | 79 | 1012.0 |
| 20260506172047 | 52 | 0 | 0.0 | 0.0 | 0.00 | 0.64 | 0.43 | 80 | 1012.0 |
| 20260506170038 | 53 | 0 | 0.0 | 0.0 | 0.00 | 0.64 | 0.43 | 77 | 1011.9 |
| 20260506165038 | 53 | 0 | 0.0 | 0.0 | 0.00 | 0.64 | 0.43 | 76 | 1011.8 |
| 20260506164040 | 53 | 0 | 0.0 | 0.0 | 0.00 | 0.64 | 0.43 | 75 | 1011.8 |
| 20260506163040 | 54 | 0 | 0.0 | 0.0 | 0.00 | 0.64 | 0.43 | 75 | 1011.7 |
| 20260506161038 | 55 | 0 | 0.0 | 0.0 | 0.00 | 0.64 | 0.43 | 75 | 1011.7 |
| 20260506160039 | 55 | 0 | 0.0 | 0.0 | 0.00 | 0.64 | 0.43 | 74 | 1011.5 |
| 20260506154043 | 55 | 0 | 0.0 | 0.0 | 0.00 | 0.64 | 0.43 | 77 | 1011.4 |
| 20260506153040 | 55 | 0 | 0.0 | 0.0 | 0.00 | 0.64 | 0.43 | 78 | 1011.4 |
| 20260506152040 | 56 | 0 | 0.0 | 0.0 | 0.00 | 0.64 | 0.43 | 78 | 1011.4 |
| 20260506151040 | 55 | 0 | 0.0 | 0.0 | 0.00 | 0.64 | 0.43 | 82 | 1011.3 |
| 20260506150038 | 55 | 0 | 0.0 | 0.0 | 0.00 | 0.64 | 0.43 | 84 | 1011.3 |
| 20260506145040 | 54 | 0 | 0.0 | 0.0 | 0.00 | 0.64 | 0.43 | 83 | 1011.3 |
| 20260506144039 | 54 | 0 | 0.0 | 0.0 | 0.00 | 0.64 | 0.43 | 84 | 1011.3 |
| 20260506143040 | 54 | 0 | 0.0 | 0.0 | 0.00 | 0.64 | 0.43 | 86 | 1011.3 |
| 20260506142039 | 54 | 0 | 0.0 | 0.0 | 0.00 | 0.64 | 0.43 | 86 | 1011.3 |
| 20260506141038 | 54 | 0 | 0.0 | 0.0 | 0.00 | 0.64 | 0.43 | 85 | 1011.3 |
| 20260506140040 | 54 | 0 | 0.0 | 0.0 | 0.00 | 0.64 | 0.43 | 86 | 1011.3 |
| 20260506134040 | 53 | 0 | 0.0 | 0.0 | 0.00 | 0.64 | 0.43 | 84 | 1011.3 |
| 20260506131039 | 53 | 0 | 0.0 | 0.0 | 0.00 | 0.64 | 0.43 | 87 | 1011.3 |
| 20260506130039 | 53 | 0 | 0.0 | 0.0 | 0.00 | 0.64 | 0.43 | 88 | 1011.2 |
| 20260506125040 | 53 | 0 | 0.0 | 0.0 | 0.00 | 0.64 | 0.43 | 91 | 1011.2 |
| 20260506124037 | 52 | 0 | 0.0 | 0.0 | 0.00 | 0.64 | 0.43 | 92 | 1011.1 |
| 20260506123042 | 51 | 0 | 0.0 | 0.0 | 0.00 | 0.64 | 0.43 | 92 | 1011.1 |
| 20260506122040 | 51 | 0 | 0.0 | 0.0 | 0.00 | 0.64 | 0.43 | 91 | 1011.1 |
| 20260506120038 | 52 | 0 | 0.0 | 0.0 | 0.00 | 0.64 | 0.43 | 90 | 1011.0 |
| 20260506115038 | 52 | 0 | 0.0 | 0.0 | 0.01 | 0.64 | 0.43 | 94 | 1010.9 |
| 20260506114038 | 51 | 0 | 0.0 | 0.0 | 0.01 | 0.64 | 0.43 | 95 | 1011.0 |
| 20260506113039 | 51 | 0 | 0.0 | 0.0 | 0.01 | 0.64 | 0.43 | 96 | 1011.0 |
| 20260506112037 | 51 | 0 | 0.0 | 0.0 | 0.02 | 0.64 | 0.43 | 97 | 1011.1 |
| 20260506111039 | 51 | 0 | 0.0 | 0.0 | 0.02 | 0.64 | 0.43 | 98 | 1011.1 |
| 20260506105039 | 50 | 0 | 0.0 | 0.0 | 0.02 | 0.64 | 0.43 | 98 | 1011.1 |
| 20260506104037 | 49 | 0 | 0.0 | 0.0 | 0.02 | 0.63 | 0.42 | 98 | 1011.1 |
| 20260506103039 | 49 | 0 | 0.0 | 0.0 | 0.02 | 0.63 | 0.42 | 98 | 1011.1 |
| 20260506102039 | 49 | 0 | 0.0 | 0.0 | 0.02 | 0.63 | 0.42 | 99 | 1011.0 |
| 20260506100037 | 49 | 0 | 0.0 | 0.0 | 0.02 | 0.62 | 0.41 | 10 | 1010.8 |
| 20260506095039 | 48 | 0 | 0.0 | 0.0 | 0.02 | 0.62 | 0.41 | 10 | 1010.8 |
| 20260506093039 | 48 | 0 | 0.0 | 0.0 | 0.01 | 0.61 | 0.40 | 10 | 1010.7 |
| 20260506092038 | 48 | 0 | 0.0 | 0.0 | 0.01 | 0.62 | 0.40 | 10 | 1010.6 |
| 20260506091039 | 48 | 0 | 0.0 | 0.0 | 0.01 | 0.61 | 0.39 | 10 | 1010.6 |
| 20260506090039 | 48 | 0 | 0.0 | 0.0 | 0.01 | 0.61 | 0.39 | 10 | 1010.4 |
| 20260506085040 | 47 | 0 | 0.0 | 0.0 | 0.01 | 0.61 | 0.39 | 10 | 1010.4 |
| 20260506084038 | 47 | 0 | 0.0 | 0.0 | 0.02 | 0.61 | 0.39 | 10 | 1010.3 |
| 20260506083037 | 47 | 0 | 0.0 | 0.0 | 0.02 | 0.62 | 0.39 | 10 | 1010.2 |
| 20260506082039 | 47 | 0 | 0.0 | 0.0 | 0.02 | 0.64 | 0.39 | 10 | 1010.1 |
| 20260506081039 | 47 | 0 | 0.0 | 0.0 | 0.02 | 0.64 | 0.39 | 10 | 1010.1 |
| 20260506073038 | 47 | 0 | 0.0 | 0.0 | 0.02 | 0.62 | 0.38 | 10 | 1009.8 |
| 20260506072036 | 47 | 0 | 0.0 | 0.0 | 0.02 | 0.62 | 0.38 | 10 | 1009.8 |